Location: Campillo
(40.8621°N, 4.2488°W)
Time: 13:18:12
(UTC+00:00)

USA 308 - Pass Details

Date: 21 September 2021
Orbit: 566 x 573 km, 54.0° (Epoch: 23 September)

Event Time Altitude Azimuth Distance (km) Brightness Sun altitude
Rises 20:57:28 0° 311° (NW) 2,772 7.5 -30.1°
Reaches altitude 10° 21:00:27 10° 333° (NNW) 1,875 6.2 -30.5°
Enters shadow 21:02:11 15° 356° (N) 1,558 5.4 -30.8°
